Погода в Стерлитамаке

Погода в Стерлитамаке : погода сейчас, прогноз погоды и архив. Всё, что Вы хотите узнать о погоде в Стерлитамаке!

Хотите узнать прогноз погоды в Стерлитамаке? Тогда Вам сюда: Погода в Стерлитамаке

Поиск расширенной информации на нашем сайте:

Другие новости

Новости СМИ2

Главная страница сайта

Новости сайта

03.07.2017

Напоминаем, что на нашем специализированном сайте Метеоцентр.Азия вы можете получить высокодетализированные автоматические прогнозы погоды по пунктам России, СНГ и мира в авиационном формате (включающие направление и скорость ветра, видимость, явления погоды, количество и форму облачности, нижнюю и верхнюю границу облачности).

Рекомендуем: см тут аренда офиса в бп курский арма завод Нижний Сусальный пер. на выгодных условиях

Погода в Стерлитамаке - сегодня

Время (UTC), дата Ветер
(°,м/с) 
Видим.   Явления Облачность Т
(°С)
Тd
(°С)
f(%) Тe
(°С)
Pmin
(гПа)
dP
(гПа)
Po
(мм)
O2
(г/м3)
Тmin Tmax R s Состояние
почвы
09 18.06.18 360 (С) 20000 м    6/6 1000 м 
[Cu med, cong]
+19.5 +7.1 44 +21  1010  -0.8  746  279           
12 18.06.18 360 (С) 20000 м    3/3 1000 м 
[Cu hum]
+21.7 +7.9 41 +22  1008.8  -1.1  745  277           
15 18.06.18 050 (СВ) 10 км    8/8 600 м кучево-дожд. 
[Cb cap]
+19.5 +11.4 59 +24  1008.3  -0.5  744  278    +22.9       
18 18.06.18 300 (СЗ) 10 км    ясно 
+15.5 +9.7 68 +18  1008.4  -0.3  744  282           
21 18.06.18 240 (ЮЗ) 10 км    ясно 
+12.7 +8.6 76 +14  1008.2  -0.3  744  285           
00 19.06.18 120 (ЮВ) 10 км    ясно 
+10.5 +8.4 87 +12  1008.5  0.1  744  287           
03 19.06.18 180 (Ю) 20000 м    ясно 
+15.7 +9.7 67 +18  1008.6  0.4  744  282  +9.6        сухая 
06 19.06.18 300 (СЗ) 20000 м    ясно 
+24.2 +9.9 40 +25  1007.8  -0.3  744  274           
09 19.06.18 340 (С) 20000 м    8/8 1000 м 
[Cu med, cong]
+26.4 +6.1 27 +26  1006.8  -0.9  743  272           
12 19.06.18 330 (СЗ) 4{12}  20000 м    6/6 1000 м 
[Cu hum]
+26.6 +4.2 24 +27  1006.2  -0.5  743  272           
15 19.06.18 310 (СЗ) 20000 м    ясно 
+26.8 +1.9 20 +27  1005.8  -0.4  743  272    +27.8       
18 19.06.18 300 (СЗ) 10 км    9/9 600 м кучево-дожд. 
[Cb cap]
+18.7 +8.5 51 +20  1007.3  743  279           
21 19.06.18 170 (Ю) 10 км    6/0 средняя, верхняя 
[Ac trans|Ci fib]
+15.4 +8.2 62 +17  1007.3  -0.2  743  282           
00 20.06.18 тихо ()   10 км    9/9 1000 м кучево-дожд. 
[Cb cap]
+14.3 +9.1 71 +14  1007.4  0.1  743  283           
03 20.06.18 220 (ЮЗ) 20000 м    4/0 средняя 
[Ac trans]
+17.8 +9.7 59 +20  1007.3  0.1  743  280  +14.1        сухая 
06 20.06.18 250 (З) 20000 м    1/1 1000 м 
[Cu hum]
+25.7 +10.9 39 +28  1006.1  -0.8  743  272           
09 20.06.18 190 (Ю) 3{11}  1000 м  гроза с градом{ливн. осадки} [макс. диам. градин 5 мм]  10/10 600 м кучево-дожд. 
[Cb cap]
+16.7 +11.3 70 +20  1005.7  -0.8  742  280           
12 20.06.18 190 (Ю) 10 км  в посл. час гроза{ливн. осадки}  9/6 600 м кучево-дожд., средняя 
[Cb cap|Ac trans]
+23.6 +13.9 55 +31  1002.9  -2.3  740  272           
15 20.06.18 180 (Ю) 10 км  {гроза, ливн. осадки}  9/4 1000 м кучево-дожд., средняя 
[Cb cap|Ac trans]
+23 +13.6 55 +30  1001.1  -1.8  739  272    +27.5  15     
18 20.06.18 260 (З) 1{15}  10 км  в посл. час ливневой дождь{гроза}  10/10 1000 м кучево-дожд. 
[Cb cap]
+17.8 +14.8 83 +28  1002  0.7  740  277           
21 20.06.18 330 (СЗ) 10 км  {ливн. осадки}  9/9 1000 м кучево-дожд. 
[Cb cap]
+17 +14 82 +24  1003.3  1.2  740  278           
00 21.06.18 220 (ЮЗ) 10 км  {ливн. осадки}  ясно 
+12.3 +9.1 81 +14  1004.4  0.8  741  284           
03 21.06.18 290 (З) 20000 м    ясно 
+16.1 +10.4 69 +19  1004.8  0.4  742  280  +11.5      влажная 
06 21.06.18 290 (З) 2000 м    6/6 1000 м 
[Cu hum]
+20.6 +6 39 +21  1004.3  -0.2  741  277           
09 21.06.18 280 (З) 4{11}  2000 м    6/6 1000 м 
[Cu hum]
+21.9 +4.8 33 +22  1003.2  -1.1  741  275           
Время (UTC), дата Ветер
(°,м/с) 
Видим.   Явления Облачность Т
(°С)
Тd
(°С)
f(%) Тe
(°С)
Pmin
(гПа)
dP
(гПа)
Po
(мм)
O2
(г/м3)
Тmin Tmax R s Состояние
почвы

Для получения пояснительной информации подведите курсор к названию столбца.

ПОГОДА в Стерлитамаке - архив

Всё, что Вы хотите узнать о погоде в Стерлитамаке - удобно и подробно!

Выберите нужную дату (начиная с 1 января 2015* года) и нажмите кнопку "Найти".
Будут отображены архивные сводки погоды по пункту Стерлитамак, начиная с указанной даты.


Отображать данные в формате CSV (для использования в таблицах Excel)


Внимание! Наш архив погоды предназначен исключительно для личного некоммерческого использования в познавательных целях. Если Вам необходимы официальные справки о состоянии погоды (для производственных, юридических, коммерческих и т.п. целей), обращайтесь в органы Росгидромета.

*Примечание: данная дата относится к архиву по метеостанциям СССР (Россия, СНГ, Балтия).
Архив по метеостанциям Зарубежной Европы и Азии (кроме Китая) хранится 10 дней, по другим регионам земного шара (Китай, Африка, Америка, Австралия, Океания) - 1 день.

Стерлитамак - район местоположения метеостанции


Название, широта, долгота, высота метеостанции:
Стерлитамак 53.6°ш. 56°д. 137 м над ур. моря [Российская Федерация]

Дополнительная информация

В oтличие oт бoльшинства пoгoдных сайтoв мы публикуем пoдрoбную метеoинфoрмацию в детальнoм прoфессиoнальнoм фoрмате.

Характеристики температуры и влажнoсти вoздуха измеряются на высoте 2 м в тени вдали oт зданий и деревьев.
Скoрoсть ветра измеряется на высoте 10 м (на урoвне рoста челoвека скoрoсть ветра ниже в 1.5-2 раза). Если метеoстанция нахoдится в гoрoде или в лесу, тo скoрoсть ветра занижена на 2-4 м/с пo сравнению с oткрытым местoм. Скoрoсть ветра над акватoриями крупных рек и oзёр, а также на вершинах хoлмoв на 2-5 м/с выше, чем в oбычных услoвиях.
Атмoсфернoе давление в разных тoчках местнoсти мoжет значительнo oтличаться oт давления на метеoстанции, в зависимoсти oт услoвий рельефа (при пoдъёме на 10 м давление пoнижается примернo на 1 мм рт.ст.).